GW3872 Weather Reports


time (UTC)temp
C
wind
direction
speed
KPH
gust
KPH
rain 1hr
cm
rain 24hr
cm
rain mn
cm
humidity
%
barometer
mb
20260505101838 15 248 4.8 11.3 0.00 0.00 0.00 80 1008.5
20260505101315 15 287 4.8 14.5 0.00 0.00 0.00 80 1008.5
20260505100901 16 302 6.4 14.5 0.00 0.00 0.00 80 1008.6
20260505100330 16 44 6.4 16.1 0.00 0.00 0.00 79 1008.6
20260505095820 16 273 4.8 27.4 0.00 0.00 0.00 77 1008.6
20260505095313 17 37 11.3 27.4 0.00 0.00 0.00 75 1008.5
20260505094825 17 6 6.4 14.5 0.00 0.00 0.00 68 1008.5
20260505094317 17 319 4.8 9.7 0.00 0.00 0.00 67 1008.0
20260505093831 17 266 6.4 14.5 0.00 0.00 0.00 67 1007.9
20260505093324 17 284 8.0 16.1 0.00 0.00 0.00 66 1008.0
20260505092314 17 250 9.7 17.7 0.00 0.00 0.00 66 1007.1
20260505091827 17 253 9.7 17.7 0.00 0.00 0.00 66 1007.0
20260505091320 17 261 9.7 20.9 0.00 0.00 0.00 66 1006.8
20260505090813 17 222 12.9 20.9 0.00 0.00 0.00 66 1006.5
20260505090327 17 215 11.3 19.3 0.00 0.00 0.00 66 1006.4
20260505085818 17 257 11.3 19.3 0.00 0.00 0.00 67 1006.4
20260505085350 17 242 11.3 17.7 0.00 0.00 0.00 67 1006.4
20260505084821 17 237 9.7 19.3 0.00 0.00 0.00 66 1006.2
20260505084413 17 228 12.9 19.3 0.00 0.00 0.00 66 1006.2
20260505082817 17 246 11.3 20.9 0.00 0.00 0.00 67 1005.9
20260505082331 17 249 11.3 20.9 0.00 0.00 0.00 66 1005.8
20260505081826 17 243 9.7 22.5 0.00 0.00 0.00 66 1005.7
20260505072819 18 235 8.0 16.1 0.00 0.00 0.00 65 1005.5
20260505072331 18 256 9.7 16.1 0.00 0.00 0.00 65 1005.5
20260505071823 18 241 8.0 19.3 0.00 0.00 0.00 65 1005.6
20260505071342 18 233 9.7 22.5 0.00 0.00 0.00 64 1005.5
20260505062823 18 237 9.7 17.7 0.00 0.00 0.00 64 1005.7
20260505062315 18 242 11.3 19.3 0.00 0.00 0.00 63 1005.7
20260505061849 18 240 8.0 19.3 0.00 0.00 0.00 63 1005.6
20260505061321 18 248 9.7 17.7 0.00 0.00 0.00 63 1005.6
20260505050842 18 263 11.3 20.9 0.00 0.00 0.00 61 1005.2
20260505050313 18 287 9.7 24.1 0.00 0.00 0.00 61 1005.3
20260505020830 20 248 4.8 11.3 0.00 0.00 0.00 61 1004.8
20260505020322 20 255 6.4 12.9 0.00 0.00 0.00 60 1004.6
20260505015812 20 246 8.0 14.5 0.00 0.00 0.00 60 1004.5
20260505015329 20 219 4.8 8.0 0.00 0.00 0.00 61 1004.3
20260505014822 20 249 4.8 8.0 0.00 0.00 0.00 61 1004.3
20260505014334 20 229 4.8 9.7 0.00 0.00 0.00 60 1004.2
20260505013844 20 230 4.8 14.5 0.00 0.00 0.00 60 1004.0
20260505013315 20 243 4.8 14.5 0.00 0.00 0.00 60 1004.1
20260505012827 21 245 3.2 14.5 0.00 0.00 0.00 59 1004.2
20260505012341 21 250 4.8 14.5 0.00 0.00 0.00 59 1004.2
20260505011812 21 243 4.8 9.7 0.00 0.00 0.00 59 1004.1
20260505011325 21 248 6.4 11.3 0.00 0.00 0.00 59 1004.1
20260504232815 24 263 9.7 24.1 0.00 0.00 0.00 51 1004.3
20260504232328 24 167 12.9 19.3 0.00 0.00 0.00 50 1004.2
20260504231317 24 241 11.3 27.4 0.00 0.00 0.00 51 1004.8
20260504230830 24 229 12.9 22.5 0.00 0.00 0.00 50 1004.8
20260504230323 24 238 14.5 29.0 0.00 0.00 0.00 50 1004.9
20260504225317 24 245 14.5 25.7 0.00 0.00 0.00 50 1005.2
20260504224829 24 257 9.7 25.7 0.00 0.00 0.00 51 1005.2
20260504224321 24 253 14.5 24.1 0.00 0.00 0.00 50 1005.2
20260504223852 24 233 12.9 24.1 0.00 0.00 0.00 50 1005.2
20260504223324 24 263 12.9 19.3 0.00 0.00 0.00 49 1005.3
20260504222817 24 281 11.3 30.6 0.00 0.00 0.00 49 1005.3
20260504222330 24 253 11.3 30.6 0.00 0.00 0.00 49 1005.4
20260504221843 24 252 9.7 27.4 0.00 0.00 0.00 48 1005.5
20260504221319 24 240 17.7 38.6 0.00 0.00 0.00 47 1005.6
20260504220832 24 269 16.1 38.6 0.00 0.00 0.00 47 1005.6
20260504220325 24 246 9.7 29.0 0.00 0.00 0.00 47 1005.7
20260504215836 24 248 16.1 40.2 0.00 0.00 0.00 45 1005.6
20260504215328 24 235 22.5 40.2 0.00 0.00 0.00 45 1005.7
20260504214821 24 248 19.3 35.4 0.00 0.00 0.00 46 1005.7
20260504214314 24 276 17.7 35.4 0.00 0.00 0.00 46 1005.7
20260504213847 24 276 20.9 33.8 0.00 0.00 0.00 45 1005.7
20260504213319 24 280 19.3 40.2 0.00 0.00 0.00 47 1005.7
20260504211321 25 249 17.7 41.8 0.00 0.00 0.00 45 1005.9
20260504210314 25 248 12.9 32.2 0.00 0.00 0.00 46 1006.0
20260504205824 25 232 6.4 40.2 0.00 0.00 0.00 46 1005.9
20260504205317 25 252 19.3 35.4 0.00 0.00 0.00 45 1005.9
20260504204831 25 228 17.7 35.4 0.00 0.00 0.00 46 1005.9
20260504204326 25 248 11.3 32.2 0.00 0.00 0.00 46 1005.9
20260504203819 25 267 16.1 27.4 0.00 0.00 0.00 47 1005.9
20260504203331 25 238 9.7 20.9 0.00 0.00 0.00 48 1005.9
20260504202824 25 287 11.3 25.7 0.00 0.00 0.00 49 1005.8
20260504202315 26 240 6.4 25.7 0.00 0.00 0.00 50 1006.0
20260504201827 25 249 11.3 22.5 0.00 0.00 0.00 50 1006.0
20260504201320 25 241 12.9 22.5 0.00 0.00 0.00 49 1006.1
20260504200832 25 259 9.7 24.1 0.00 0.00 0.00 48 1006.1
20260504200328 25 267 14.5 24.1 0.00 0.00 0.00 46 1006.2
20260504195838 25 241 9.7 22.5 0.00 0.00 0.00 49 1006.4
20260504195330 25 260 14.5 33.8 0.00 0.00 0.00 48 1006.5
20260504194822 25 190 14.5 33.8 0.00 0.00 0.00 52 1006.5
20260504194314 25 249 11.3 14.5 0.00 0.00 0.00 51 1006.7
20260504193827 25 240 6.4 16.1 0.00 0.00 0.00 51 1006.7
20260504193319 25 245 8.0 20.9 0.00 0.00 0.00 53 1006.8
20260504192832 25 235 11.3 20.9 0.00 0.00 0.00 52 1006.9
20260504192325 25 242 9.7 25.7 0.00 0.00 0.00 49 1006.9
20260504191822 25 236 12.9 25.7 0.00 0.00 0.00 50 1006.9
20260504191314 25 276 11.3 24.1 0.00 0.00 0.00 50 1007.1
20260504190847 24 250 12.9 30.6 0.00 0.00 0.00 54 1007.0
20260504190320 24 279 11.3 29.0 0.00 0.00 0.00 53 1007.1
20260504185829 24 248 11.3 19.3 0.00 0.00 0.00 54 1007.3
20260504185321 24 248 9.7 16.1 0.00 0.00 0.00 54 1007.3
20260504184813 24 246 11.3 16.1 0.00 0.00 0.00 53 1007.3
20260504184326 24 252 9.7 14.5 0.00 0.00 0.00 54 1007.4
20260504183822 24 252 6.4 24.1 0.00 0.00 0.00 54 1007.5
20260504183313 24 233 12.9 24.1 0.00 0.00 0.00 54 1007.5
20260504182824 23 194 9.7 19.3 0.00 0.00 0.00 58 1007.5
20260504182317 23 259 11.3 20.9 0.00 0.00 0.00 55 1007.4
20260504181829 23 246 9.7 25.7 0.00 0.00 0.00 55 1007.4
20260504181322 23 208 14.5 30.6 0.00 0.00 0.00 57 1007.4
20260504180814 23 243 16.1 35.4 0.00 0.00 0.00 58 1007.3
20260504180327 23 259 22.5 35.4 0.00 0.00 0.00 54 1007.4
20260504175821 23 211 14.5 27.4 0.00 0.00 0.00 55 1007.4
20260504175335 23 264 9.7 37.0 0.00 0.00 0.00 60 1007.3
20260504174826 23 267 22.5 37.0 0.00 0.00 0.00 56 1007.3
20260504174339 22 229 8.0 27.4 0.00 0.00 0.00 58 1007.3
20260504173831 22 238 6.4 32.2 0.00 0.00 0.00 60 1007.4
20260504173323 22 248 11.3 20.9 0.00 0.00 0.00 59 1007.4
20260504172816 22 246 12.9 19.3 0.00 0.00 0.00 61 1007.5
20260504172328 21 193 9.7 22.5 0.00 0.00 0.00 61 1007.5
20260504171820 21 218 9.7 24.1 0.00 0.00 0.00 63 1007.6
20260504171352 20 246 9.7 27.4 0.00 0.00 0.00 65 1007.7
20260504170827 20 232 14.5 27.4 0.00 0.00 0.00 64 1007.7
20260504170320 20 252 14.5 25.7 0.00 0.00 0.00 64 1007.8
20260504160320 17 219 8.0 22.5 0.00 0.00 0.00 73 1008.2
20260504150824 17 233 16.1 24.1 0.00 0.00 0.00 69 1008.4
20260504150317 17 231 8.0 16.1 0.00 0.03 0.00 72 1008.4
20260504141315 16 259 4.8 14.5 0.00 0.03 0.00 73 1008.1
20260504140829 16 240 8.0 19.3 0.00 0.03 0.00 72 1008.0
20260504140322 16 246 11.3 19.3 0.00 0.03 0.00 72 1008.1
20260504130819 13 228 16.1 24.1 0.00 0.03 0.00 76 1008.3
20260504130314 13 224 8.0 14.5 0.00 0.03 0.00 76 1008.8
20260504110324 12 240 8.0 14.5 0.00 0.03 0.00 74 1009.1